Date String (YYYY-MM-DD hh:mm:ss) UTC,Instrument flags,absolute air pressure of the measurement (hPa),sample flow rate (lpm),inlet stack bypass flow (lpm),air temperature of the measurement (°C),ambient temperature measured by the external sensor (°C),aerosol sample conditioner tube jacket temperature (°C),OPC LED temperature (°C),internal box temperature (°C),relative humidity of the measurement (%),span deviation,mass concentration of particles derived from Lorenz-Mie calculation of OPC scattering (μg/m³),mass concentration of particles derived from Lorenz-Mie calculation of OPC scattering (μg/m³),mass concentration of particles derived from Lorenz-Mie calculation of OPC scattering (μg/m³)
DateTimeUTC,F1_M11,P_M11,Q1_M11,Q2_M11,T1_M11,T2_M11,T3_M11,T4_M11,T5_M11,U1_M11,ZSPAN_M11,X0_M11,X2_M11,X1_M11
2024-02-28 07:00:00,SystemResetWarning,0825.9,5.00,000.00,018.7,018.2,000.0,027.1,020.2,05.1,0000.0,0003.15,0001.18,0000.75
2024-02-28 07:01:00,SystemResetWarning,0826.0,5.01,000.00,018.7,017.9,000.0,027.1,020.1,05.2,0000.0,0003.26,0001.25,0000.78
2024-02-28 07:02:00,SystemResetWarning,0826.1,5.01,000.00,018.6,017.7,000.0,027.1,020.0,07.4,0000.0,0003.43,0001.34,0000.81
2024-02-28 07:03:00,SystemResetWarning,0826.1,5.01,000.00,018.6,018.1,000.0,027.2,020.3,08.0,0000.0,0003.73,0001.39,0000.85
2024-02-28 07:04:00,SystemResetWarning,0826.0,4.99,000.00,018.8,018.8,000.0,027.3,020.9,07.2,0000.0,0003.93,0001.45,0000.88
2024-02-28 07:05:00,SystemResetWarning,0826.1,4.99,000.00,019.0,019.3,000.0,027.3,021.1,06.1,0000.0,0005.41,0001.51,0000.88
2024-02-28 07:06:00,SystemResetWarning,0826.2,5.00,000.00,019.0,019.1,000.0,027.3,020.9,06.1,0000.0,0005.67,0001.50,0000.88
2024-02-28 07:07:00,SystemResetWarning,0826.1,5.00,000.00,018.9,018.8,000.0,027.2,020.7,06.3,0000.0,0005.61,0001.46,0000.88
2024-02-28 07:08:00,SystemResetWarning,0825.9,5.00,000.00,018.9,018.6,000.0,027.2,020.5,06.9,0000.0,0005.06,0001.42,0000.86
2024-02-28 07:09:00,SystemResetWarning,0825.9,5.00,000.00,018.8,018.3,000.0,027.2,020.4,07.3,0000.0,0005.96,0001.44,0000.85
2024-02-28 07:10:00,SystemResetWarning,0825.9,4.99,000.00,018.7,018.1,000.0,027.1,020.2,07.5,0000.0,0006.17,0001.49,0000.88
2024-02-28 07:11:00,SystemResetWarning,0825.9,5.00,000.00,018.7,017.9,000.0,027.1,020.1,05.9,0000.0,0006.17,0001.47,0000.84
2024-02-28 07:12:00,SystemResetWarning,0825.9,5.00,000.00,018.6,017.8,000.0,027.1,020.0,05.5,0000.0,0006.74,0001.42,0000.82
2024-02-28 07:13:00,SystemResetWarning,0826.0,5.00,000.00,018.5,017.7,000.0,027.1,020.1,05.9,0000.0,0006.77,0001.39,0000.80
2024-02-28 07:14:00,SystemResetWarning,0825.8,5.01,000.00,018.6,018.3,000.0,027.3,020.5,05.6,0000.0,0006.48,0001.35,0000.78
2024-02-28 07:15:00,SystemResetWarning,0825.7,5.01,000.00,018.8,019.0,000.0,027.3,021.0,05.0,0000.0,0006.35,0001.36,0000.80
2024-02-28 07:16:00,SystemResetWarning,0825.8,5.00,000.00,019.0,019.2,000.0,027.3,021.0,06.3,0000.0,0005.00,0001.36,0000.85
2024-02-28 07:17:00,SystemResetWarning,0825.8,4.99,000.00,018.9,018.9,000.0,027.2,020.8,05.9,0000.0,0004.67,0001.38,0000.88
2024-02-28 07:18:00,SystemResetWarning,0825.9,5.00,000.00,018.9,018.7,000.0,027.2,020.6,05.4,0000.0,0004.69,0001.42,0000.90
2024-02-28 07:19:00,SystemResetWarning,0825.8,5.00,000.00,018.8,018.4,000.0,027.2,020.4,05.0,0000.0,0005.03,0001.45,0000.92
2024-02-28 07:20:00,SystemResetWarning,0825.9,5.01,000.00,018.7,018.2,000.0,027.1,020.2,04.8,0000.0,0004.50,0001.40,0000.93
2024-02-28 07:21:00,SystemResetWarning,0825.9,5.01,000.00,018.6,017.9,000.0,027.1,020.0,04.9,0000.0,0004.32,0001.38,0000.91
2024-02-28 07:22:00,SystemResetWarning,0826.0,5.00,000.00,018.5,017.7,000.0,027.1,020.0,05.0,0000.0,0004.28,0001.40,0000.95
2024-02-28 07:23:00,SystemResetWarning,0826.0,5.00,000.00,018.5,017.8,000.0,027.2,020.2,05.5,0000.0,0003.72,0001.45,0000.99
2024-02-28 07:24:00,SystemResetWarning,0826.1,5.00,000.00,018.7,018.5,000.0,027.3,020.7,05.1,0000.0,0003.88,0001.47,0001.00
2024-02-28 07:25:00,SystemResetWarning,0826.0,5.01,000.00,018.9,019.3,000.0,027.4,021.2,05.0,0000.0,0004.35,0001.44,0001.00
2024-02-28 07:26:00,SystemResetWarning,0826.1,5.00,000.00,019.1,019.6,000.0,027.4,021.3,04.9,0000.0,0004.27,0001.37,0000.95
2024-02-28 07:27:00,SystemResetWarning,0826.0,5.00,000.00,019.1,019.3,000.0,027.3,021.0,05.1,0000.0,0004.49,0001.33,0000.90
2024-02-28 07:28:00,SystemResetWarning,0825.9,4.98,000.00,019.0,019.0,000.0,027.3,020.7,05.7,0000.0,0005.34,0001.31,0000.88
2024-02-28 07:29:00,SystemResetWarning,0825.9,5.00,000.00,018.9,018.6,000.0,027.2,020.5,05.9,0000.0,0005.48,0001.36,0000.89
2024-02-28 07:30:00,SystemResetWarning,0825.9,5.00,000.00,018.8,018.4,000.0,027.2,020.3,05.3,0000.0,0005.68,0001.36,0000.88
2024-02-28 07:31:00,SystemResetWarning,0826.0,5.00,000.00,018.8,018.1,000.0,027.2,020.2,05.1,0000.0,0004.73,0001.32,0000.85
2024-02-28 07:32:00,SystemResetWarning,0826.2,5.00,000.00,018.7,017.9,000.0,027.1,020.1,06.4,0000.0,0004.76,0001.26,0000.81
2024-02-28 07:33:00,SystemResetWarning,0826.2,5.00,000.00,018.6,017.7,000.0,027.1,020.0,07.6,0000.0,0004.71,0001.20,0000.78
2024-02-28 07:34:00,SystemResetWarning,0826.2,5.00,000.00,018.5,017.6,000.0,027.1,020.0,07.9,0000.0,0004.61,0001.13,0000.73
2024-02-28 07:35:00,SystemResetWarning,0826.3,5.01,000.00,018.6,018.1,000.0,027.2,020.4,08.1,0000.0,0004.38,0001.07,0000.71
2024-02-28 07:36:00,SystemResetWarning,0826.3,5.00,000.00,018.8,018.9,000.0,027.3,020.9,08.0,0000.0,0003.63,0001.07,0000.71
2024-02-28 07:37:00,SystemResetWarning,0826.2,4.99,000.00,019.0,019.3,000.0,027.4,021.2,06.1,0000.0,0003.65,0001.09,0000.71
2024-02-28 07:38:00,SystemResetWarning,0826.0,4.99,000.00,019.0,019.1,000.0,027.3,021.0,05.6,0000.0,0003.59,0001.08,0000.72
2024-02-28 07:39:00,SystemResetWarning,0826.0,5.01,000.00,018.9,018.8,000.0,027.2,020.7,05.2,0000.0,0002.58,0001.08,0000.73
2024-02-28 07:40:00,SystemResetWarning,0826.0,5.01,000.00,018.9,018.5,000.0,027.2,020.5,05.1,0000.0,0002.51,0001.03,0000.70
2024-02-28 07:41:00,SystemResetWarning,0826.0,5.00,000.00,018.8,018.3,000.0,027.2,020.3,05.0,0000.0,0002.15,0000.98,0000.71
2024-02-28 07:42:00,SystemResetWarning,0825.9,5.00,000.00,018.7,018.0,000.0,027.1,020.1,05.0,0000.0,0001.80,0000.98,0000.72
2024-02-28 07:43:00,SystemResetWarning,0826.1,4.99,000.00,018.6,017.8,000.0,027.1,020.0,05.1,0000.0,0001.79,0001.01,0000.73
2024-02-28 07:44:00,SystemResetWarning,0825.9,5.00,000.00,018.5,017.7,000.0,027.2,020.1,05.1,0000.0,0002.28,0001.06,0000.75
2024-02-28 07:45:00,SystemResetWarning,0825.9,5.01,000.00,018.7,018.3,000.0,027.3,020.5,05.0,0000.0,0002.29,0001.11,0000.80
2024-02-28 07:46:00,SystemResetWarning,0826.1,5.01,000.00,018.9,019.1,000.0,027.3,021.0,04.9,0000.0,0002.38,0001.18,0000.84
2024-02-28 07:47:00,SystemResetWarning,0826.2,4.99,000.00,019.0,019.2,000.0,027.3,021.0,04.9,0000.0,0002.57,0001.27,0000.90
2024-02-28 07:48:00,SystemResetWarning,0826.2,4.99,000.00,018.9,019.0,000.0,027.2,020.8,05.0,0000.0,0002.71,0001.35,0000.96
2024-02-28 07:49:00,SystemResetWarning,0825.9,5.01,000.00,018.9,018.7,000.0,027.2,020.5,04.9,0000.0,0002.76,0001.38,0000.98
2024-02-28 07:50:00,SystemResetWarning,0825.9,5.01,000.00,018.8,018.4,000.0,027.2,020.3,04.8,0000.0,0002.70,0001.39,0001.00
2024-02-28 07:51:00,SystemResetWarning,0825.9,4.99,000.00,018.7,018.1,000.0,027.1,020.1,04.9,0000.0,0002.68,0001.41,0001.02
2024-02-28 07:52:00,SystemResetWarning,0826.1,4.99,000.00,018.6,017.8,000.0,027.1,020.0,04.9,0000.0,0002.77,0001.45,0001.04
2024-02-28 07:53:00,SystemResetWarning,0826.1,5.00,000.00,018.5,017.7,000.0,027.2,020.1,05.0,0000.0,0002.82,0001.48,0001.05
2024-02-28 07:54:00,SystemResetWarning,0825.9,5.02,000.00,018.6,018.3,000.0,027.2,020.5,05.0,0000.0,0002.87,0001.50,0001.06
2024-02-28 07:55:00,SystemResetWarning,0825.9,5.00,000.00,018.8,019.0,000.0,027.3,021.0,04.9,0000.0,0002.65,0001.50,0001.07
2024-02-28 07:56:00,SystemResetWarning,0825.9,4.98,000.00,019.0,019.2,000.0,027.3,021.0,04.8,0000.0,0002.55,0001.50,0001.07
2024-02-28 07:57:00,SystemResetWarning,0826.2,5.01,000.00,018.9,018.9,000.0,027.2,020.8,04.8,0000.0,0003.65,0001.52,0001.06
2024-02-28 07:58:00,SystemResetWarning,0826.2,5.01,000.00,018.9,018.6,000.0,027.2,020.5,04.9,0000.0,0003.66,0001.45,0001.04
2024-02-28 07:59:00,SystemResetWarning,0826.2,5.00,000.00,018.8,018.3,000.0,027.1,020.3,05.0,0000.0,0003.59,0001.38,0001.00
